Terminal Aerodrome Forecast
Issued by NWS Topeka, KS

Home | Current Version | Previous Version | Graphics & Text | Print | Product List | Glossary On
Versions: 1 2 3 4 5 6 7 8 9 10 11 12 13 14 15 16
000
FTUS43 KTOP 230700 AAA
TAFTOP
TAF AMD
KTOP 230711Z 2307/2406 04006KT P6SM BKN025
     FM230900 04008KT P6SM FEW035 SCT150=

USA.gov is the U.S. government's official web portal to all federal, state and local government web resources and services.